Regional Weather Roundup
Issued by NWS

Home | Current Version | Previous Version | Graphics & Text | Print | Product List | Glossary On
Versions: 1 2 3 4 5 6 7 8 9 10 11 12 13 14 15 16 17 18 19 20 21 22 23 24 25 26 27 28
000
ASUS45 KCYS 200510
RWRWY

WYOMING REGIONAL WEATHER ROUNDUP
NATIONAL WEATHER SERVICE CHEYENNE WY
1000 PM MST MON FEB 19 2018

NOTE:  "FAIR" INDICATES FEW OR NO CLOUDS BELOW 12,000 FEET
WITH NO SIGNIFICANT WEATHER AND/OR OBSTRUCTIONS TO VISIBILITY.

WYZ001-200600-
YELLOWSTONE NATIONAL PARK

CITY           SKY/WX    TMP DP  RH WIND       PRES   REMARKS
LK YELLOWSTONE   N/A    -16 -21  78 CALM      29.60R
W YELLOWSTONE  NOT AVBL

$$
WYZ002>013-054>058-071-098>099-200600-
NORTHERN WYOMING

CITY           SKY/WX    TMP DP  RH WIND       PRES   REMARKS
JACKSON        FAIR       3  -3  76 N7        29.62R WCI  -9
CODY           CLOUDY    -5 -10  79 NE3       29.87R
GREYBULL       CLOUDY    -1  -6  79 NW5       29.97R WCI -11
WORLAND        LGT SNOW  -4  -7  87 CALM      29.95R FOG
SHERIDAN       CLOUDY    -2  -7  79 W9        29.96R WCI -18
BUFFALO        FAIR      -6 -12  75 NW12      29.85R WCI -25
GILLETTE       CLOUDY    -7 -12  79 NW3       29.90R HAZE
HULETT         LGT SNOW  -4  -8  84 MISG      29.91R
NEWCASTLE      FLURRIES  -2  -8  78 NW5       29.89R WCI -12

$$
WYZ014>020-022>026-101>103-200600-
CENTRAL WYOMING

CITY           SKY/WX    TMP DP  RH WIND       PRES   REMARKS
BIG PINEY      CLOUDY    -1  -6  79 SE7       29.63R WCI -14
PINEDALE       CLOUDY     0  -6  78 CALM      29.62S
DUBOIS         NOT AVBL
LANDER         CLOUDY    -3  -7  82 E3        29.76S
RIVERTON       CLOUDY    -4 -10  75 CALM      29.78S
CASPER         FAIR     -12 -15  86 N10       29.81R WCI -31
DOUGLAS        LGT SNOW  -1  -5  82 NW7       29.84R FOG     WCI -14

$$
WYZ021-027>030-104>119-200600-
SOUTHERN WYOMING

CITY           SKY/WX    TMP DP  RH WIND       PRES   REMARKS
EVANSTON       CLOUDY     9   4  80 W8        29.61R WCI  -3
ROCK SPRINGS   CLOUDY    -2 -10  69 E9        29.67R WCI -18
DIXON          LGT SNOW   1  -4  78 W3        29.68R
RAWLINS        CLOUDY    -5 -11  75 NW7       29.63R HAZE    WCI -19
SARATOGA       LGT SNOW  -4  -9  77 NW6       29.61R WCI -16
LARAMIE        MOCLDY    -8 -12  83 N13       29.54R WCI -28
CHEYENNE       MIX PCPN  -4  -9  79 N13       29.64F WCI -23
TORRINGTON     CLOUDY    -1  -7  75 N7        29.85F WCI -14
PINE BLUFFS    CLOUDY     0  -6  78 MISG      29.74F

$$




USA.gov is the U.S. government's official web portal to all federal, state and local government web resources and services.